Temp
61 60 60 60 60 60 60 60 60 60 60 60 61 61 61 61 61 69 65 73 73 69 68 76 79 82 85 84 89 90 76 74 79 82 86 97 91 97 101 97 96 97 95 96 98
60 60 60 60 60 60 59 59 59 60 60 60 60 60 60 60 65 66 75 73 72 70 72 73 76 80 79 80 84 81 74 77 88 90 90 95 93 93 92 91 93 91 93 95 96
59 59 60 60 59 59 59 59 59 59 60 60 59 60 60 63 63 69 68 68 70 69 73 76 80 81 75 81 81 80 74 83 88 91 95 93 93 94 91 87 93 91 90 92 94
59 59 59 59 59 59 59 59 59 59 60 60 59 59 59 66 52 71 68 68 68 73 74 73 73 72 73 73 82 75 81 84 88 92 90 89 94 89 93 92 99 97 95 92 92
58 59 59 59 59 59 58 59 59 59 59 59 59 59 61 58 60 77 70 72 74 75 73 71 69 71 70 76 80 77 81 84 87 90 87 89 88 89 89 96 97 96 94 93 91
58 58 58 58 58 58 58 58 58 58 58 58 59 59 58 49 75 79 78 76 76 74 72 75 72 77 75 76 77 81 81 83 85 86 85 83 85 88 90 95 94 93 91 93 93
57 58 58 58 58 58 58 57 57 57 58 59 59 60 52 57 77 79 77 75 77 73 68 76 79 75 76 74 83 81 75 78 81 83 81 85 79 81 91 93 91 90 92 93 93
57 57 57 57 58 58 58 57 57 58 59 59 60 57 46 71 77 73 76 74 76 73 70 70 73 72 75 80 78 73 74 67 78 80 82 82 71 84 90 89 86 90 91 91 92
57 57 57 57 57 57 57 56 57 58 59 61 57 52 49 72 66 72 74 69 72 73 72 71 68 63 71 67 67 69 62 65 72 81 80 78 73 84 89 88 85 88 90 90 90
57 56 56 56 57 56 56 56 60 59 63 64 60 47 59 60 69 71 75 72 67 67 64 61 56 60 64 65 55 60 62 67 68 76 77 74 74 84 86 86 84 87 89 89 90
57 56 56 56 56 55 58 68 59 55 59 59 59 58 63 69 71 68 70 64 67 63 54 57 47 52 60 65 69 70 66 67 72 79 73 73 74 81 84 85 84 86 87 88 90
57 56 56 56 55 55 61 55 58 62 50 63 64 65 67 70 59 62 69 57 58 53 59 51 43 61 67 68 66 69 66 65 73 78 74 72 72 80 81 82 85 86 86 88 90
55 55 55 55 55 58 63 62 67 64 47 58 64 62 63 66 59 56 63 59 56 54 56 50 56 63 64 64 63 66 67 66 69 73 74 72 69 73 80 82 84 87 89 90 90
55 55 55 55 53 70 58 67 64 63 37 53 57 61 64 65 55 68 68 62 56 51 58 57 62 61 59 61 66 60 72 71 70 65 58 72 58 69 76 76 81 84 87 88 90
55 55 54 53 65 58 64 66 58 57 30 55 56 69 64 58 56 55 70 64 53 54 57 54 54 56 55 60 68 65 71 69 70 65 66 66 64 69 75 72 76 82 85 88 90
55 54 54 65 65 62 66 56 53 34 30 49 57 52 51 55 53 57 61 66 65 52 56 59 62 59 63 68 70 73 69 69 68 65 55 64 64 69 71 73 77 81 84 86 89
54 54 59 70 61 68 58 47 35 34 47 45 47 52 50 41 44 46 52 52 50 37 43 54 55 57 66 61 68 68 63 53 50 51 54 69 63 72 77 80 81 81 83 86 89
53 52 60 73 70 61 50 39 33 40 38 52 50 50 42 43 39 40 43 48 56 55 47 46 37 47 64 62 61 64 64 57 45 49 57 68 59 70 81 84 85 86 86 87 88
52 72 75 74 73 63 45 37 37 35 39 37 44 39 41 43 40 37 44 50 56 59 38 49 47 53 63 68 69 63 59 72 63 65 60 64 68 76 79 79 82 83 85 85 87
63 72 69 77 73 60 41 38 39 39 39 37 35 45 39 45 39 39 41 51 55 62 55 58 44 51 58 69 70 68 72 59 64 49 48 57 61 63 70 73 78 79 80 82 85
64 66 72 79 72 61 39 41 41 48 45 35 38 37 45 46 48 42 45 52 56 59 59 56 50 46 59 59 60 63 60 65 65 64 53 50 59 73 72 76 76 78 80 77 79
69 62 75 77 56 51 42 46 45 45 47 40 37 39 39 47 48 51 48 52 61 63 52 51 45 43 52 67 72 69 64 66 59 56 63 60 57 78 77 77 76 76 72 70 74
64 69 76 73 41 41 49 49 50 45 43 41 38 41 47 44 43 52 55 63 64 62 50 50 45 42 46 57 65 63 67 68 66 65 59 54 55 74 72 68 66 64 65 70 73
66 58 66 68 59 46 45 47 43 50 46 45 42 45 43 46 50 46 50 58 62 56 49 46 48 52 42 51 61 59 64 68 65 58 61 61 60 66 63 58 59 62 72 74 74
65 58 55 50 53 48 51 49 42 40 46 45 42 46 41 35 38 46 53 57 57 50 50 43 47 59 60 62 63 64 64 66 63 66 61 63 63 66 63 59 61 68 72 72 72
57 50 54 47 55 53 49 48 44 44 41 39 40 46 45 41 43 50 57 54 50 50 48 55 55 60 56 63 63 61 66 67 67 68 67 66 63 68 63 64 63 67 71 70 70
60 62 50 52 58 53 48 50 48 48 46 46 45 43 43 44 47 56 58 57 58 54 53 51 49 46 45 62 60 54 63 66 68 70 70 60 66 67 59 59 62 67 68 67 68
MSLP
1020.13 1019.77 1019.35 1018.95 1018.56 1018.22 1017.92 1017.64 1017.26 1016.88 1016.67 1016.32 1015.92 1015.63 1015.38 1014.94 1014.36 1013.15 1011.26 1010.14 1010.18 1010.54 1010.87 1010.06 1008.79 1007.50 1006.87 1005.27 1004.28 1003.88 1001.87 999.12 997.95 997.44 996.44 996.19 996.74 998.03 998.28 998.34 999.30 999.95 1000.38 1001.21 1002.52
1020.07 1019.58 1019.15 1018.80 1018.42 1018.06 1017.73 1017.35 1017.00 1016.66 1016.43 1016.01 1015.82 1015.48 1015.22 1014.84 1013.46 1010.92 1009.28 1009.34 1009.85 1010.53 1010.55 1009.10 1007.23 1006.66 1005.66 1004.50 1003.42 1002.25 1000.75 998.81 998.56 997.66 996.87 996.24 997.04 997.94 998.50 999.03 999.21 1000.89 1001.96 1002.53 1002.88
1020.01 1019.57 1019.15 1018.64 1018.20 1017.75 1017.31 1017.03 1016.68 1016.31 1015.95 1015.77 1015.51 1015.38 1014.98 1014.50 1012.12 1008.25 1008.88 1009.02 1009.57 1010.39 1010.12 1009.11 1007.21 1005.64 1004.75 1003.65 1002.42 1001.65 999.79 999.88 998.56 998.02 997.40 996.59 997.07 998.54 998.23 998.74 998.98 999.88 1001.64 1002.57 1002.82
1019.96 1019.40 1018.95 1018.54 1018.09 1017.58 1017.02 1016.70 1016.24 1016.09 1015.82 1015.44 1015.33 1015.13 1014.89 1013.81 1010.34 1008.45 1009.49 1009.58 1010.07 1009.88 1009.31 1008.43 1007.33 1005.34 1003.70 1002.39 1001.84 1001.00 1000.79 999.93 999.07 998.21 998.19 997.52 997.88 998.65 998.02 998.69 998.83 999.60 1000.90 1002.52 1002.68
1019.81 1019.24 1018.68 1018.15 1017.60 1017.19 1016.72 1016.33 1015.88 1015.61 1015.62 1015.43 1015.07 1015.12 1014.39 1012.22 1009.43 1008.75 1009.46 1009.44 1009.33 1008.66 1008.06 1007.42 1006.35 1005.07 1002.96 1002.22 1001.52 1000.45 1000.11 1000.37 999.66 998.78 999.54 999.51 998.63 998.73 999.19 999.13 999.68 1000.58 1001.36 1002.19 1002.69
1019.48 1018.88 1018.34 1017.81 1017.20 1016.66 1016.29 1015.87 1015.51 1015.19 1015.12 1014.91 1014.79 1014.85 1013.80 1011.28 1008.96 1008.50 1008.32 1008.51 1008.31 1008.14 1007.41 1006.41 1005.57 1004.75 1003.18 1001.94 1000.69 1000.54 1000.48 999.93 1000.06 999.62 1000.09 1000.09 999.67 999.62 999.48 999.85 1000.09 1000.99 1001.86 1001.90 1002.57
1019.25 1018.60 1017.90 1017.24 1016.52 1016.00 1015.54 1015.13 1014.65 1014.54 1014.23 1014.15 1014.22 1014.18 1012.83 1009.77 1008.24 1007.50 1007.58 1007.58 1007.79 1007.91 1007.55 1006.23 1005.60 1004.40 1003.45 1001.71 1000.97 1000.65 1000.41 1000.44 999.71 1000.06 1000.07 1000.50 999.96 999.38 999.79 999.94 1000.18 1001.09 1001.47 1001.63 1002.13
1018.87 1018.25 1017.61 1016.79 1016.05 1015.37 1014.83 1014.37 1013.86 1013.62 1013.39 1013.24 1013.43 1013.27 1011.14 1009.04 1008.22 1008.20 1007.82 1007.30 1007.57 1008.01 1008.24 1007.70 1006.72 1005.00 1003.06 1002.07 1001.24 1000.64 1000.44 999.54 999.55 1000.02 1000.13 1000.25 999.06 999.41 1000.00 1000.02 1000.68 1000.94 1001.24 1001.85 1002.20
1018.51 1017.78 1017.03 1016.37 1015.63 1014.81 1014.30 1013.53 1013.10 1012.72 1012.37 1012.43 1012.65 1012.36 1009.66 1007.45 1007.80 1007.35 1007.31 1006.98 1007.49 1007.44 1007.74 1008.02 1007.48 1005.93 1003.96 1001.97 1000.69 1000.33 998.82 998.89 998.93 999.56 999.85 999.83 999.31 999.04 999.77 1000.05 1000.52 1000.63 1001.00 1001.78 1002.33
1017.94 1017.24 1016.49 1015.82 1015.10 1014.29 1013.68 1012.69 1011.67 1012.12 1011.41 1011.78 1011.84 1011.65 1008.52 1006.82 1006.05 1006.45 1006.37 1006.67 1006.62 1006.99 1007.37 1008.02 1007.67 1005.34 1003.42 1001.31 998.54 997.90 998.50 998.43 998.02 998.80 999.59 999.66 999.54 998.64 999.57 999.89 1000.37 1000.43 1000.77 1001.42 1001.92
1017.46 1016.70 1015.84 1014.99 1014.33 1013.88 1013.09 1010.59 1010.93 1010.55 1009.86 1008.63 1007.94 1007.48 1006.23 1006.16 1006.54 1006.06 1006.40 1006.55 1006.34 1006.33 1006.13 1007.07 1006.52 1003.35 1001.21 1000.16 999.45 998.41 998.64 997.89 998.15 997.93 999.44 999.22 999.70 998.92 999.16 999.88 1000.20 1000.20 1000.65 1001.05 1001.44
1016.88 1016.02 1015.13 1014.32 1013.68 1013.23 1012.75 1011.09 1010.56 1010.56 1009.08 1007.36 1006.53 1006.19 1006.46 1006.02 1005.59 1005.80 1006.37 1006.25 1005.70 1005.04 1005.47 1005.87 1004.86 1003.07 1001.96 1001.13 1000.08 998.31 997.70 998.04 997.62 997.73 999.10 999.39 999.31 998.90 999.64 1000.00 999.97 1000.04 1000.31 1000.70 1001.14
1016.31 1015.38 1014.49 1013.61 1013.02 1012.29 1010.88 1010.52 1010.85 1010.96 1009.62 1005.85 1005.08 1005.20 1005.66 1006.15 1005.41 1006.05 1006.18 1006.07 1005.21 1004.70 1004.27 1004.01 1003.49 1003.07 1001.32 1000.33 999.71 998.16 996.87 997.43 996.95 998.11 999.38 999.53 999.34 999.16 999.31 999.85 1000.00 999.97 1000.09 1000.54 1000.82
1015.70 1014.90 1014.05 1012.91 1013.23 1010.18 1010.65 1010.83 1011.55 1011.25 1009.50 1005.13 1004.43 1004.15 1004.82 1005.39 1005.04 1005.14 1005.62 1005.43 1004.99 1004.22 1003.16 1002.95 1003.14 1002.08 1001.22 999.59 999.29 998.00 997.44 997.10 997.17 998.03 998.32 998.78 997.79 998.25 998.63 999.27 999.42 999.50 999.68 1000.13 1000.66
1015.33 1014.35 1013.53 1013.08 1011.75 1010.97 1010.98 1011.61 1012.20 1011.42 1008.07 1004.75 1004.43 1004.53 1004.52 1004.87 1004.90 1004.87 1004.78 1004.65 1004.19 1003.50 1002.76 1001.94 1002.45 1001.98 1001.00 999.42 998.81 997.75 998.19 997.61 997.72 998.59 997.92 998.01 997.22 996.47 998.22 998.21 998.62 998.84 999.30 999.77 1000.43
1014.98 1014.12 1012.96 1011.70 1011.45 1011.70 1011.80 1012.70 1012.43 1010.94 1007.08 1004.67 1004.22 1004.75 1005.02 1004.97 1005.25 1005.58 1004.10 1004.64 1004.10 1004.13 1003.36 1001.61 1002.82 1002.16 1000.44 999.39 998.85 997.79 998.13 997.77 998.24 998.36 997.57 996.81 996.85 994.66 995.68 996.71 998.02 998.85 999.34 999.96 1000.49
1014.41 1013.63 1012.77 1011.29 1010.83 1011.20 1012.63 1012.86 1011.81 1009.20 1007.62 1005.62 1004.82 1004.81 1004.95 1005.82 1006.19 1006.18 1004.45 1004.08 1003.42 1004.22 1003.01 1001.79 1001.90 1002.44 1000.26 999.40 999.09 997.86 997.13 996.89 997.52 997.35 995.72 995.84 996.56 993.44 994.73 995.96 996.97 998.23 999.21 999.96 1000.42
1013.68 1013.06 1011.49 1010.30 1010.72 1012.21 1012.66 1012.36 1010.63 1009.26 1008.30 1006.77 1005.56 1005.15 1005.06 1005.50 1006.07 1006.34 1005.16 1003.49 1002.99 1001.80 1001.82 1001.23 1002.11 1002.55 1000.46 999.23 998.04 997.42 996.16 994.90 994.72 994.76 994.72 995.48 995.14 994.30 995.02 995.77 996.73 997.59 998.50 999.41 1000.03
1012.94 1011.03 1009.74 1010.14 1010.39 1011.63 1012.15 1011.20 1010.54 1010.15 1009.54 1008.57 1006.67 1005.47 1005.05 1005.12 1005.82 1005.89 1004.84 1002.96 1001.92 1001.04 1003.01 1000.34 1000.89 1002.53 1000.49 999.08 998.10 997.12 996.38 994.82 994.46 994.39 994.15 994.61 995.29 995.53 996.17 996.70 997.04 997.63 998.40 999.14 999.82
1012.95 1009.96 1009.70 1009.67 1010.24 1010.49 1011.49 1010.77 1010.19 1010.18 1009.83 1009.49 1007.88 1005.85 1004.88 1003.91 1004.71 1004.91 1004.14 1002.87 1001.10 1000.56 1002.59 1000.02 1000.89 1002.19 1000.52 998.85 998.40 996.86 995.74 995.11 994.24 993.75 993.95 995.17 995.30 995.59 996.67 997.22 997.92 998.47 999.44 1000.04 1000.55
1011.97 1008.87 1009.44 1009.12 1009.34 1009.32 1010.46 1010.28 1010.14 1009.71 1009.33 1009.81 1008.50 1006.93 1005.00 1003.60 1002.83 1003.17 1002.67 1001.99 1001.95 1000.76 1002.17 1001.49 1001.09 1002.10 1000.18 997.91 997.05 996.77 996.03 995.14 994.29 993.54 993.54 994.74 995.38 995.84 997.27 997.66 998.39 999.41 1000.45 1001.47 1002.29
1010.58 1008.48 1009.52 1008.91 1008.92 1010.25 1010.38 1010.17 1010.15 1009.48 1009.20 1009.39 1009.26 1007.74 1006.04 1004.07 1002.44 1000.72 1000.59 1000.62 1001.35 1000.94 1001.88 1003.24 1002.75 1001.42 999.59 997.96 997.41 996.67 996.22 995.02 994.13 993.63 993.90 995.10 996.84 996.83 997.91 998.83 1000.01 1001.05 1002.94 1004.21 1004.58
1011.35 1009.01 1009.05 1009.02 1010.12 1010.49 1010.23 1009.85 1009.67 1009.38 1009.07 1008.98 1008.68 1007.69 1006.27 1004.68 1003.23 1001.42 1000.40 999.90 1000.76 1000.93 1003.02 1004.21 1003.13 1000.75 999.42 998.48 997.55 996.74 996.18 995.72 994.79 994.70 994.15 995.20 997.80 999.15 999.96 1001.52 1003.36 1004.28 1004.98 1005.33 1005.55
1011.73 1009.76 1009.31 1009.26 1010.58 1011.19 1010.12 1009.53 1009.33 1009.20 1008.90 1008.84 1008.18 1007.35 1006.03 1004.54 1003.47 1002.50 1001.56 1001.09 1001.56 1002.56 1004.04 1005.21 1002.81 999.85 999.09 998.21 997.38 996.36 996.22 995.93 995.34 994.89 994.67 995.46 998.02 999.70 1001.86 1003.97 1004.99 1005.23 1004.67 1005.17 1005.92
1013.08 1012.32 1013.29 1011.46 1010.82 1010.83 1010.28 1009.63 1009.29 1008.97 1008.99 1008.71 1007.96 1006.80 1005.93 1005.15 1004.29 1002.55 1001.41 1001.21 1002.25 1003.66 1004.30 1005.21 1001.88 998.73 998.61 998.04 997.18 996.40 996.20 996.09 995.43 994.90 994.96 996.35 998.26 999.89 1003.03 1004.82 1005.34 1004.92 1004.92 1005.74 1006.43
1015.10 1015.44 1014.62 1013.50 1010.98 1010.34 1010.16 1009.50 1009.35 1009.18 1009.26 1008.51 1007.97 1006.56 1005.79 1005.16 1004.11 1001.85 1001.29 1001.68 1002.32 1002.99 1003.34 1001.78 999.53 998.30 997.64 997.20 996.90 996.35 996.52 996.04 995.53 995.10 995.66 997.03 998.85 1001.17 1004.36 1005.32 1005.85 1005.61 1005.56 1006.35 1007.12
1017.40 1016.51 1016.14 1012.86 1010.85 1010.28 1009.90 1009.21 1008.90 1009.08 1008.85 1008.63 1007.68 1006.81 1006.11 1005.81 1004.80 1003.27 1002.67 1002.55 1002.06 1001.64 1001.26 1000.26 999.71 998.88 997.90 996.61 996.91 996.63 996.11 995.91 995.91 995.72 995.60 996.97 999.56 1002.58 1004.85 1005.91 1006.42 1006.38 1006.70 1007.47 1008.17
Wind_Speed
17 18 16 16 15 14 15 16 16 16 16 17 16 16 16 16 17 22 22 16 3 9 5 17 18 17 19 20 24 23 19 22 29 27 22 19 16 17 14 14 7 6 7 18 11
18 18 18 17 18 16 16 16 16 16 16 15 15 15 17 17 21 25 26 20 10 6 15 17 16 18 19 21 22 22 21 29 23 22 22 19 21 18 15 12 10 10 9 10 12
19 19 19 18 19 17 16 17 16 16 15 15 15 14 13 17 23 12 13 3 14 8 18 20 20 19 24 20 26 28 25 23 24 22 22 18 15 13 19 19 15 17 16 11 14
20 20 19 18 19 20 19 18 18 18 16 14 14 13 12 15 9 13 15 14 9 12 18 20 21 22 25 29 27 25 27 27 21 17 10 15 11 21 15 15 12 6 19 13 12
20 20 20 20 20 20 19 20 19 18 18 15 13 14 14 18 19 10 15 8 11 9 15 21 25 23 26 25 26 31 23 25 26 15 12 13 17 16 15 18 9 6 8 11 11
20 20 21 21 21 21 20 19 18 18 18 17 14 12 15 22 15 15 19 20 16 11 18 21 24 24 20 27 29 21 25 20 26 17 16 22 20 17 17 14 9 10 12 13 12
20 20 21 22 22 21 20 20 18 18 19 18 16 13 15 22 13 7 10 14 15 11 17 13 23 23 28 26 21 24 24 25 21 21 18 18 21 23 18 14 14 15 14 11 12
21 21 22 23 23 22 22 22 20 20 21 20 17 13 14 15 17 25 23 16 11 10 11 8 15 21 24 17 24 21 19 23 24 23 23 21 23 23 21 18 17 19 14 11 11
22 21 23 24 24 23 22 22 24 22 18 13 11 13 14 6 20 17 20 21 21 13 10 8 9 15 18 24 21 21 24 25 29 25 20 23 16 23 20 20 19 18 17 14 12
23 23 22 23 24 21 22 25 18 9 9 7 5 5 15 11 5 9 9 15 17 21 16 9 6 14 19 20 26 29 32 25 25 25 26 22 19 18 21 20 20 18 18 15 16
26 24 24 23 22 19 16 15 2 9 12 14 9 13 2 10 3 11 7 8 17 19 22 16 13 25 33 31 24 22 24 24 24 22 24 23 21 19 22 19 20 19 18 17 15
27 26 26 25 21 17 12 6 6 9 13 18 20 20 17 10 10 2 4 11 16 23 23 15 19 25 24 27 26 27 24 27 21 18 21 22 22 17 14 17 20 20 19 18 16
27 27 26 24 18 10 8 8 10 6 8 11 7 13 15 17 14 12 12 6 15 21 25 22 19 25 25 27 27 28 23 26 21 17 17 21 21 27 19 18 22 22 19 18 18
28 27 25 23 7 9 5 7 6 7 5 11 8 5 11 14 18 20 18 13 9 17 25 25 23 26 21 27 27 27 17 21 22 18 15 25 14 23 22 20 22 24 23 21 20
29 29 25 9 10 8 8 7 4 4 4 4 8 4 3 15 7 3 21 21 15 12 16 22 16 22 23 25 27 21 18 21 21 19 20 21 18 24 20 21 24 22 23 21 19
29 27 22 5 1 3 8 4 4 4 3 6 6 4 8 15 7 8 15 23 15 6 19 20 17 17 23 23 23 22 25 18 15 16 18 25 19 18 26 27 23 20 19 17 17
31 24 13 8 8 7 6 1 3 4 3 5 5 7 9 7 8 5 13 21 19 8 17 20 22 18 20 23 26 22 23 17 17 16 16 18 20 7 22 25 25 24 22 20 18
33 22 10 5 9 7 2 3 5 5 3 15 11 12 10 5 10 13 11 18 23 19 15 17 15 18 19 22 22 27 24 16 29 19 15 21 14 9 11 15 19 21 19 20 18
34 7 3 9 6 3 3 4 7 4 5 8 15 3 5 4 5 8 18 18 21 19 8 18 18 21 19 26 28 29 26 22 16 16 16 18 9 14 16 11 12 13 13 14 16
10 6 9 8 5 4 2 7 4 4 4 3 5 7 7 2 10 10 13 14 20 16 22 12 15 21 19 28 28 23 25 12 11 19 15 15 15 15 16 17 15 14 10 12 12
7 5 8 13 6 7 6 7 10 15 10 4 5 5 9 9 6 12 21 11 21 14 12 7 8 20 22 18 30 17 17 13 7 17 11 14 13 20 17 17 13 13 14 17 14
7 6 8 11 7 6 9 17 7 15 13 3 3 6 5 11 7 4 15 16 23 15 16 5 3 19 26 25 25 19 23 16 8 9 11 12 10 17 14 12 15 17 18 12 14
10 4 7 7 6 9 15 13 16 16 13 1 4 7 9 7 4 8 10 12 23 14 8 4 8 16 16 19 21 24 23 11 2 3 16 15 12 11 19 19 15 15 16 17 19
8 8 5 5 4 13 16 16 20 14 8 8 5 9 9 6 2 2 4 7 10 12 11 3 8 19 15 21 19 24 23 17 8 7 12 14 21 18 21 17 16 17 21 22 22
6 7 9 8 10 13 17 18 22 14 6 9 5 14 4 1 2 4 7 14 11 9 11 12 17 22 23 26 25 24 25 17 13 11 9 24 19 20 20 18 17 17 20 23 23
8 7 7 13 15 16 15 21 20 21 8 14 10 21 11 6 9 9 16 8 6 11 12 9 11 20 21 26 26 23 24 19 14 4 20 23 20 23 20 19 16 18 21 20 20
7 8 3 13 14 13 15 19 19 20 5 10 16 8 10 12 15 8 9 4 5 2 9 5 5 3 16 28 22 20 25 19 12 0 19 19 22 22 19 20 17 19 17 17 17
Wind_Direction
344 342 338 330 326 325 325 325 322 320 320 318 315 323 322 297 292 265 256 244 282 24 261 271 258 243 224 237 223 221 234 235 228 229 240 220 175 212 229 231 152 90 22 93 141
341 336 335 332 331 327 321 316 314 316 314 314 315 314 320 321 288 276 261 256 231 217 263 247 237 216 216 219 214 216 227 231 240 236 235 236 185 203 213 212 167 162 99 135 156
337 336 332 333 328 323 316 313 308 306 306 308 310 313 311 307 290 282 53 254 178 206 242 257 259 223 221 220 215 217 230 228 239 244 241 230 199 204 213 212 205 179 152 166 166
333 331 332 327 321 317 315 306 304 303 301 303 303 303 307 280 271 93 94 88 142 232 224 230 239 235 218 219 217 215 225 248 228 246 240 233 220 217 219 217 205 127 135 165 173
332 329 327 320 316 311 307 303 300 296 296 294 292 293 284 237 246 301 161 195 244 260 239 228 224 224 222 220 217 220 224 220 248 238 222 234 231 215 203 234 115 153 137 172 179
327 325 322 320 316 312 307 302 298 291 286 279 275 279 255 259 273 256 259 256 251 265 263 236 229 226 235 225 222 217 224 235 223 238 204 225 228 225 223 216 172 186 194 180 174
326 323 320 317 314 309 304 299 295 290 280 270 260 255 265 248 269 247 250 247 247 253 271 250 225 228 230 223 225 227 217 228 219 214 206 213 227 211 215 218 187 203 202 186 170
326 323 319 315 314 309 304 301 295 289 282 265 250 254 253 274 251 247 264 262 256 182 263 301 293 279 235 237 224 218 212 213 214 208 214 204 217 212 212 196 203 205 190 175 174
328 322 318 317 315 312 307 301 294 287 276 258 244 225 260 216 227 244 252 241 228 210 225 296 289 245 225 215 218 209 214 218 202 204 209 209 226 199 197 215 204 197 192 178 164
327 323 319 313 312 311 309 291 277 280 229 126 252 183 236 258 257 207 228 223 226 221 207 231 232 221 213 209 204 199 212 203 215 186 209 193 228 228 177 207 205 194 200 190 172
327 324 319 313 311 313 308 294 171 199 218 255 208 236 281 196 211 209 181 221 208 218 207 199 209 208 202 210 216 203 204 219 205 187 197 214 207 214 178 204 201 197 195 197 199
327 325 319 314 310 306 280 283 322 330 285 276 258 242 236 284 221 223 213 195 208 208 204 182 223 223 215 213 224 228 188 217 186 185 191 205 203 202 202 203 210 207 197 200 196
326 326 324 319 312 277 262 360 19 320 271 298 205 227 223 223 241 180 208 212 219 211 205 206 212 227 221 204 210 227 206 196 199 156 187 200 213 214 179 202 213 212 202 204 201
327 329 328 318 278 341 56 16 19 298 277 140 180 183 195 214 233 232 193 202 202 237 211 211 210 213 229 211 200 212 209 197 200 165 191 202 202 206 201 196 209 208 209 206 205
329 331 328 320 327 13 359 31 332 246 258 133 117 87 201 198 162 322 211 220 244 241 220 206 217 212 204 219 198 209 186 213 191 183 194 190 234 189 200 196 203 206 204 206 199
330 330 325 214 222 17 36 61 266 234 25 309 136 213 229 231 267 301 221 212 232 256 269 215 180 233 202 210 188 205 189 190 187 185 223 174 223 213 190 198 191 198 204 210 217
329 323 299 292 348 46 91 299 236 297 355 356 311 271 264 212 218 234 195 195 216 165 237 205 182 236 227 191 195 202 191 170 185 195 212 175 201 115 175 193 193 195 202 212 216
327 319 196 347 70 106 118 262 280 11 277 322 318 297 254 210 187 186 240 200 221 201 224 160 206 199 196 208 187 191 192 174 180 185 188 183 196 193 139 177 192 189 194 199 207
314 205 304 12 46 91 329 300 357 328 318 303 299 282 271 156 184 174 211 213 208 218 223 172 205 157 232 206 189 185 198 194 190 187 189 153 169 128 140 149 156 155 169 180 191
312 263 56 5 23 226 299 332 325 220 261 256 284 315 301 306 165 187 188 228 221 211 196 201 163 167 224 204 196 199 203 206 231 185 159 168 174 146 162 158 160 161 166 190 192
251 271 40 332 269 330 337 313 316 322 331 215 307 293 308 325 200 192 187 177 218 203 191 315 166 178 213 189 186 189 222 235 241 203 172 168 169 139 168 173 142 141 126 88 97
297 352 29 331 19 353 334 338 299 326 336 170 280 274 280 316 335 332 161 211 203 198 188 50 206 157 198 188 184 190 201 214 209 169 166 144 93 148 123 117 124 114 98 112 109
329 313 89 24 14 344 328 322 343 342 335 121 261 247 292 288 -0 6 56 122 184 195 125 170 231 145 207 192 190 180 199 200 258 294 165 140 131 117 97 91 102 122 130 139 133
322 356 6 319 41 338 332 341 342 349 323 333 292 298 307 294 316 74 139 181 156 90 96 42 271 193 178 177 188 184 182 202 221 191 177 128 137 147 110 124 136 150 154 133 132
20 23 23 322 335 325 355 347 343 358 346 333 307 326 348 54 240 189 178 130 104 129 152 194 216 192 182 179 193 179 177 194 200 193 180 133 149 128 129 143 148 146 133 135 133
353 359 336 287 279 359 358 345 348 355 345 325 323 341 21 19 355 157 128 143 165 223 253 213 167 178 174 178 181 179 173 192 194 148 124 148 124 108 132 139 146 148 141 132 130
1 6 328 280 350 5 351 342 5 359 319 310 330 328 357 352 328 20 63 57 1 21 223 127 131 229 201 162 170 178 177 188 146 50 152 137 121 126 143 145 155 150 138 128 126